Dalton, GA

4:33 AM EST on January 20, 2017 (GMT -0500)
Dalton Municipal

Weather History for KDNN - December, 2013

Change the Weather History Date:

Tuesday, December 24, 2013

  Actual Average Record
Temperature  
Mean Temperature 32 °F -  
Max Temperature 35 °F 50 °F 73 °F (1970)
Min Temperature 28 °F 30 °F 0 °F (1983)
Degree Days  
Heating Degree Days 34    
Moisture  
Dew Point 25 °F    
Average Humidity 75    
Maximum Humidity 93    
Minimum Humidity 56    
Precipitation  
Precipitation 0.00 in - - ()
Sea Level Pressure  
Sea Level Pressure 30.41 in    
Wind  
Wind Speed 11 mph (NNW)    
Max Wind Speed 18 mph    
Max Gust Speed 25 mph    
Visibility 10 miles    
Events      
Averages and records for this station are not official NWS values.
T = Trace of Precipitation, MM = Missing Value Source: NWS Daily Summary

Daily Weather History Graph

Daily Weather History Graph

Search for Another Location

Airport or City:

Trip Planner

Search our weather history database for the weather conditions in past years. The results will help you decide how hot, cold, wet, or windy it might be!

Date:

Astronomy

Dec. 24, 2013 Rise Set
Actual Time 7:44 AM EST 5:34 PM EST
Civil Twilight 7:16 AM EST 6:02 PM EST
Nautical Twilight 6:44 AM EST 6:33 PM EST
Astronomical Twilight 6:13 AM EST 7:04 PM EST
Moon No Moon Rise 11:53 AM EST (12/24)
Length of Visible Light 10h 45m
Length of Day
9h 49m
Waning Gibbous, 59% of the Moon is Illuminated
Dec 24
Waning Gibbous
Dec 25
Last Quarter
Jan 1
New
Jan 7
First Quarter
Jan 15
Full

Hourly Weather History & Observations

Time (EST) Temp. Windchill Dew Point Humidity Pressure Visibility Wind Dir Wind Speed Gust Speed Precip Events Conditions
12:15 AM 33.8 °F 25.8 °F 30.2 °F 87% 30.34 in 10.0 mi NNW 10.4 mph 16.1 mph N/A   Overcast
12:35 AM 32.0 °F 22.1 °F 30.2 °F 93% 30.34 in 10.0 mi NNW 13.8 mph 17.3 mph N/A   Overcast
12:55 AM 32.0 °F 22.1 °F 30.2 °F 93% 30.34 in 10.0 mi NNW 13.8 mph - N/A   Scattered Clouds
1:15 AM 32.0 °F 23.0 °F 28.4 °F 87% 30.35 in 10.0 mi NNW 11.5 mph - N/A   Clear
1:35 AM 32.0 °F 23.6 °F 30.2 °F 93% 30.35 in 10.0 mi NNW 10.4 mph - N/A   Clear
1:55 AM 32.0 °F 23.0 °F 28.4 °F 87% 30.34 in 10.0 mi NNW 11.5 mph - N/A   Clear
2:15 AM 32.0 °F 24.2 °F 28.4 °F 87% 30.34 in 10.0 mi NNW 9.2 mph - N/A   Clear
2:35 AM 32.0 °F 22.5 °F 28.4 °F 87% 30.35 in 10.0 mi NNW 12.7 mph 17.3 mph N/A   Clear
2:55 AM 32.0 °F 23.6 °F 30.2 °F 93% 30.35 in 10.0 mi NNW 10.4 mph - N/A   Clear
3:15 AM 32.0 °F 24.2 °F 28.4 °F 87% 30.35 in 10.0 mi NNW 9.2 mph - N/A   Clear
3:35 AM 32.0 °F 24.8 °F 28.4 °F 87% 30.34 in 10.0 mi NNW 8.1 mph - N/A   Clear
3:55 AM 32.0 °F 23.6 °F 28.4 °F 87% 30.35 in 10.0 mi NNW 10.4 mph - N/A   Clear
4:15 AM 32.0 °F 22.5 °F 28.4 °F 87% 30.36 in 10.0 mi NNW 12.7 mph 16.1 mph N/A   Clear
4:35 AM 32.0 °F 24.8 °F 28.4 °F 87% 30.36 in 10.0 mi NNW 8.1 mph - N/A   Clear
4:55 AM 32.0 °F 24.2 °F 28.4 °F 87% 30.36 in 10.0 mi NNW 9.2 mph - N/A   Clear
5:15 AM 30.2 °F 21.3 °F 28.4 °F 93% 30.36 in 10.0 mi NW 10.4 mph - N/A   Clear
5:35 AM 30.2 °F 21.3 °F 28.4 °F 93% 30.37 in 10.0 mi NNW 10.4 mph - N/A   Clear
5:55 AM 30.2 °F 21.3 °F 28.4 °F 93% 30.38 in 10.0 mi NNW 10.4 mph - N/A   Clear
6:15 AM 30.2 °F 21.9 °F 28.4 °F 93% 30.39 in 10.0 mi NNW 9.2 mph - N/A   Clear
6:35 AM 30.2 °F 21.9 °F 28.4 °F 93% 30.39 in 10.0 mi NNW 9.2 mph - N/A   Clear
6:55 AM 30.2 °F 21.9 °F 28.4 °F 93% 30.39 in 10.0 mi NNW 9.2 mph - N/A   Clear
7:15 AM 30.2 °F 21.3 °F 28.4 °F 93% 30.40 in 10.0 mi NW 10.4 mph - N/A   Clear
7:35 AM 30.2 °F 21.3 °F 28.4 °F 93% 30.41 in 10.0 mi NW 10.4 mph - N/A   Clear
7:55 AM 30.2 °F 21.9 °F 26.6 °F 86% 30.41 in 10.0 mi NW 9.2 mph - N/A   Clear
8:15 AM 30.2 °F 21.3 °F 28.4 °F 93% 30.42 in 10.0 mi NW 10.4 mph - N/A   Clear
8:35 AM 30.2 °F 21.9 °F 28.4 °F 93% 30.42 in 10.0 mi NNW 9.2 mph - N/A   Clear
8:55 AM 32.0 °F 22.1 °F 28.4 °F 87% 30.44 in 10.0 mi NW 13.8 mph - N/A   Clear
9:15 AM 32.0 °F 21.2 °F 26.6 °F 80% 30.45 in 10.0 mi NNW 16.1 mph 20.7 mph N/A   Clear
9:35 AM 32.0 °F 20.5 °F 26.6 °F 80% 30.45 in 10.0 mi NNW 18.4 mph - N/A   Clear
9:55 AM 32.0 °F 21.2 °F 26.6 °F 80% 30.46 in 10.0 mi NNW 16.1 mph 21.9 mph N/A   Scattered Clouds
10:15 AM 32.0 °F 21.6 °F 26.6 °F 80% 30.47 in 10.0 mi NNW 15.0 mph 24.2 mph N/A   Mostly Cloudy
10:35 AM 32.0 °F 22.1 °F 26.6 °F 80% 30.47 in 10.0 mi NNW 13.8 mph 25.3 mph N/A   Overcast
10:55 AM 32.0 °F 21.2 °F 26.6 °F 80% 30.46 in 10.0 mi North 16.1 mph 23.0 mph N/A   Overcast
11:15 AM 32.0 °F 21.2 °F 26.6 °F 80% 30.46 in 10.0 mi NNW 16.1 mph 21.9 mph N/A   Overcast
11:35 AM 32.0 °F 22.5 °F 24.8 °F 75% 30.47 in 10.0 mi North 12.7 mph 21.9 mph N/A   Overcast
11:55 AM 32.0 °F 21.6 °F 23.0 °F 69% 30.47 in 10.0 mi North 15.0 mph 24.2 mph N/A   Mostly Cloudy
12:15 PM 32.0 °F 22.5 °F 23.0 °F 69% 30.46 in 10.0 mi NNW 12.7 mph 21.9 mph N/A   Overcast
12:35 PM 33.8 °F 25.8 °F 24.8 °F 70% 30.45 in 10.0 mi NNW 10.4 mph 16.1 mph N/A   Mostly Cloudy
12:55 PM 33.8 °F 24.3 °F 24.8 °F 70% 30.45 in 10.0 mi NNW 13.8 mph 23.0 mph N/A   Scattered Clouds
1:15 PM 33.8 °F 25.3 °F 24.8 °F 70% 30.45 in 10.0 mi NNW 11.5 mph 17.3 mph N/A   Scattered Clouds
1:35 PM 35.6 °F 26.6 °F 23.0 °F 60% 30.45 in 10.0 mi NW 13.8 mph 25.3 mph N/A   Scattered Clouds
1:55 PM 35.6 °F 25.5 °F 23.0 °F 60% 30.44 in 10.0 mi NNW 17.3 mph 20.7 mph N/A   Clear
2:15 PM 35.6 °F 27.1 °F 23.0 °F 60% 30.44 in 10.0 mi NNW 12.7 mph 17.3 mph N/A   Clear
2:35 PM 35.6 °F 27.1 °F 23.0 °F 60% 30.43 in 10.0 mi North 12.7 mph 17.3 mph N/A   Clear
2:55 PM 35.6 °F 27.5 °F 21.2 °F 56% 30.43 in 10.0 mi NNW 11.5 mph 17.3 mph N/A   Clear
3:15 PM 35.6 °F 28.0 °F 23.0 °F 60% 30.43 in 10.0 mi North 10.4 mph - N/A   Clear
3:35 PM 35.6 °F 28.6 °F 21.2 °F 56% 30.43 in 10.0 mi NNW 9.2 mph 18.4 mph N/A   Clear
3:55 PM 35.6 °F 28.6 °F 21.2 °F 56% 30.43 in 10.0 mi North 9.2 mph - N/A   Clear
4:15 PM 35.6 °F 28.0 °F 21.2 °F 56% 30.44 in 10.0 mi North 10.4 mph - N/A   Clear
4:35 PM 35.6 °F 28.0 °F 21.2 °F 56% 30.44 in 10.0 mi North 10.4 mph - N/A   Clear
4:55 PM 35.6 °F 29.2 °F 21.2 °F 56% 30.44 in 10.0 mi North 8.1 mph - N/A   Clear
5:15 PM 33.8 °F 25.8 °F 21.2 °F 60% 30.43 in 10.0 mi North 10.4 mph - N/A   Clear
5:35 PM 33.8 °F 26.4 °F 21.2 °F 60% 30.43 in 10.0 mi North 9.2 mph - N/A   Clear
5:55 PM 33.8 °F 27.0 °F 21.2 °F 60% 30.43 in 10.0 mi North 8.1 mph - N/A   Clear
6:15 PM 32.0 °F 26.4 °F 21.2 °F 64% 30.42 in 10.0 mi North 5.8 mph - N/A   Clear
6:35 PM 32.0 °F 26.4 °F 21.2 °F 64% 30.42 in 10.0 mi NNW 5.8 mph - N/A   Clear
6:55 PM 32.0 °F 26.4 °F 21.2 °F 64% 30.43 in 10.0 mi NNW 5.8 mph - N/A   Clear
7:15 PM 32.0 °F 24.8 °F 19.4 °F 60% 30.43 in 10.0 mi NNW 8.1 mph - N/A   Clear
7:35 PM 32.0 °F 25.6 °F 21.2 °F 64% 30.43 in 10.0 mi NNW 6.9 mph - N/A   Clear
7:55 PM 30.2 °F 24.3 °F 21.2 °F 69% 30.43 in 10.0 mi NNW 5.8 mph - N/A   Clear
8:15 PM 30.2 °F 23.4 °F 21.2 °F 69% 30.42 in 10.0 mi NNW 6.9 mph - N/A   Clear
8:35 PM 30.2 °F 23.4 °F 19.4 °F 64% 30.42 in 10.0 mi North 6.9 mph - N/A   Clear
8:55 PM 30.2 °F 24.3 °F 19.4 °F 64% 30.42 in 10.0 mi NNW 5.8 mph - N/A   Clear
9:15 PM 30.2 °F 23.4 °F 19.4 °F 64% 30.42 in 10.0 mi NNW 6.9 mph - N/A   Clear
9:35 PM 30.2 °F 21.9 °F 19.4 °F 64% 30.42 in 10.0 mi NNW 9.2 mph - N/A   Clear
9:55 PM 30.2 °F 21.3 °F 19.4 °F 64% 30.41 in 10.0 mi NNW 10.4 mph - N/A   Clear
10:15 PM 30.2 °F 21.9 °F 19.4 °F 64% 30.41 in 10.0 mi NNW 9.2 mph - N/A   Clear
10:35 PM 28.4 °F 19.7 °F 19.4 °F 69% 30.42 in 10.0 mi NNW 9.2 mph - N/A   Clear
10:55 PM 28.4 °F 22.2 °F 19.4 °F 69% 30.42 in 10.0 mi North 5.8 mph - N/A   Clear
11:15 PM 28.4 °F 22.2 °F 19.4 °F 69% 30.42 in 10.0 mi NNW 5.8 mph - N/A   Clear
11:35 PM 28.4 °F 20.4 °F 19.4 °F 69% 30.42 in 10.0 mi NNW 8.1 mph - N/A   Clear
11:55 PM 28.4 °F 22.2 °F 19.4 °F 69% 30.41 in 10.0 mi NNW 5.8 mph - N/A   Clear